Regional Weather Roundup
Issued by NWS Jackson, KY

Home | Current Version | Previous Version | Graphics & Text | Print | Product List | Glossary On
Versions: 1 2 3 4 5 6 7 8 9 10 11 12 13 14 15 16 17 18 19 20 21 22 23 24 25 26 27 28
000
ASUS43 KJKL 290110
RWRJKL

EAST KENTUCKY HOURLY WEATHER ROUNDUP
NATIONAL WEATHER SERVICE JACKSON KY
900 PM EDT TUE MAR 28 2017

NOTE: "FAIR" INDICATES FEW OR NO CLOUDS BELOW 12,000 FEET WITH
NO SIGNIFICANT WEATHER AND/OR OBSTRUCTIONS TO VISIBILITY.

* THESE REPORTS ARE NOT UNDER NWS QUALITY CONTROL AND MAY NOT
  REPORT WEATHER SUCH AS PRECIPITATION AND FOG.

KYZ079-080-083-085-087-088-110-112-115-119-120-290200
...EASTERN KENTUCKY...

CITY           SKY/WX    TMP DP  RH WIND       PRES   REMARKS
JACKSON        CLOUDY    59  53  80 NW3       30.05R
LONDON         CLOUDY    60  52  74 NW5       30.05R
SOMERSET*      CLOUDY    59  52  77 N3        30.07R
MONTICELLO*    CLOUDY    59  54  83 N13       30.08R
WILLIAMSBURG*  MOCLDY    59  54  82 CALM      30.05R
MIDDLESBORO*   CLOUDY    61  51  70 CALM      30.05R
HARLAN APT*    CLOUDY    61  50  67 CALM      30.05R
PIKE CO APT*   CLOUDY    59  55  85 NW6       30.04R
BIG SANDY APT* CLOUDY    60  55  82 N3        30.05R
MOREHEAD APT*  CLOUDY    59  52  77 N6        30.08R
ASHLAND*       CLOUDY    57  52  82 N5        30.04R
$$

KYZ035-036-041-042-044-050-067-078-099-290200
...CENTRAL KENTUCKY...

CITY           SKY/WX    TMP DP  RH WIND       PRES   REMARKS
MT STERLING*   CLOUDY    55  54  94 CALM      30.09R
FLEMING/MASON* CLOUDY    55  51  85 N8        30.09R
DANVILLE*      CLOUDY    57  54  88 N5        30.08R
LEXINGTON      CLOUDY    58  52  80 N7        30.08R
FRANKFORT      CLOUDY    60  50  69 N5        30.07R
LOUISVILLE     PTCLDY    59  47  64 N9        30.08R
LEBANON*         N/A     57  55  94 CALM      30.07R
GLASGOW*       CLOUDY    60  59  99 CALM      30.06R
BOWLING GREEN  CLOUDY    61  55  81 NW3       30.06R
$$

KYZ091>093-OHZ055-061-077-WVZ005-015-034-035-042-290200
...SOUTHERN OHIO/WEST VIRGINIA...

CITY           SKY/WX    TMP DP  RH WIND       PRES   REMARKS
COVINGTON      CLOUDY    55  48  77 N13       30.10R
COLUMBUS       CLOUDY    50  43  77 N13       30.11R
DAYTON         CLOUDY    50  45  83 NE12      30.13R
WILMINGTON     CLOUDY    51  48  89 NE9       30.10R
HUNTINGTON     CLOUDY    59  53  80 N7        30.04R
CHARLESTON     CLOUDY    60  52  74 N6        30.03R
PINEVILLE*     CLOUDY    56  52  84 MISG      30.08S
BECKLEY        CLOUDY    55  49  80 W5        30.03R
LOGAN CO APT*  CLOUDY    59  54  82 CALM      30.04R
$$

VAZ002-007-008-TNZ017-027-036-066-071-290200
...SOUTHWEST VIRGINIA/EAST TENNESSEE...

CITY           SKY/WX    TMP DP  RH WIND       PRES   REMARKS
WISE*          CLOUDY    55  48  76 W3        30.08R
JONESVILLE*      N/A     63  50  63 CALM      30.06R
ABINGDON*      CLOUDY    62  51  67 N5        30.04R
BRISTOL        CLOUDY    63  50  62 NW7       30.03R
MORRISTOWN*    MOCLDY    64  52  63 N7        30.01R
SEVIERVILLE*   CLOUDY    64  50  59 CALM      30.00R
KNOXVILLE      PTCLDY    67  49  52 NW6       30.00R
LAFOLLETTE*    CLEAR     63  48  59 CALM      30.06R
OAK RIDGE      CLEAR     65  50  58 VRB3      30.03R
CROSSVILLE     CLOUDY    60  49  66 N6        30.06R
NASHVILLE      PTCLDY    62  53  72 NE10      30.04R
$$

...KEY TO REMARKS...
VSB - VISIBILITY IN MILES
WCI - WIND CHILL INDEX
HX  - HEAT INDEX

$$




USA.gov is the U.S. government's official web portal to all federal, state and local government web resources and services.